Regional Weather Roundup
Issued by NWS

Home | Current Version | Previous Version | Text Only | Print | Product List | Glossary Off
Versions: 1 2 3 4 5 6 7 8 9 10 11 12 13 14 15 16 17 18 19 20 21 22 23 24 25 26 27 28 29 30 31 32 33 34 35 36 37 38 39 40 41 42 43 44 45 46 47 48 49 50

000
ASUS43 KDTX 301310
RWRMI
MICHIGAN HOURLY REGIONAL WEATHER ROUNDUP
NATIONAL WEATHER SERVICE DETROIT/PONTIAC MI
900 AM EDT MON MAR 30 2015

NOTE: "FAIR" INDICATES FEW OR NO CLOUDS BELOW 12,000 FEET WITH NO
SIGNIFICANT WEATHER AND/OR OBSTRUCTION TO VISIBILITY.

MIZ047>049-052>055-059>063-066>070-074>076-081>083-301400-
SOUTHEAST LOWER MICHIGAN

CITY           SKY/WX    TMP DP  RH WIND       PRES   REMARKS
ADRIAN         SUNNY     39  29  67 NW9       29.94R WCI  33
ALMA           SUNNY     38  32  77 W13       29.87R WCI  30
ANN ARBOR      SUNNY     40  29  64 NW15      29.90R WCI  32
BAD AXE        SUNNY     37  31  78 W14       29.80R WCI  28
CARO           SUNNY     37  32  79 W9G16     29.83R WCI  31
DETROIT CITY   SUNNY     42  29  59 W13       29.88R
DETROIT        MOSUNNY   41  29  62 W16G22    29.90R
FLINT          SUNNY     40  30  67 W16       29.88R WCI  31
GROSSE ILE     SUNNY     41  30  65 W12G17    29.89R
HILLSDALE      SUNNY     38  30  71 W13       29.93R WCI  31
HOWELL         SUNNY     38  31  76 W13       29.89R WCI  30

CITY           SKY/WX    TMP DP  RH WIND       PRES   REMARKS
JACKSON        SUNNY     38  28  67 W9        29.92R WCI  31
LAMBERTVILLE   SUNNY     41  32  70 W9G16     29.94R
LANSING        SUNNY     38  29  70 W16       29.91R WCI  29
LAPEER         FAIR      38  30  74 W12G20    29.84R WCI  30
MASON          SUNNY     37  28  70 W12       29.91R WCI  30
MONROE         SUNNY     39  30  70 W14G20    29.90R WCI  31
MT. CLEMENS    MOSUNNY   41  30  65 W15G23    29.82R
PONTIAC        SUNNY     38  29  70 W18G24    29.85R WCI  28
PORT HOPE        N/A     39  29  67 W12G21    29.75R WCI  32
PORT HURON     PTSUNNY   39  30  70 W8G17     29.84R WCI  34
TRI CITIES     SUNNY     38  30  73 W15       29.84R WCI  29
TROY           SUNNY     40  29  64 W12G20    29.88R WCI  33
SAGINAW HB     SUNNY     37  32  81 SW10      29.84S WCI  30
$$
MIZ043>046-050>051-056>058-064>065-071>073-077>080-301400-
SOUTHWEST LOWER MICHIGAN

CITY           SKY/WX    TMP DP  RH WIND       PRES   REMARKS
BATTLE CREEK   SUNNY     39  29  67 W9        29.95R WCI  33
BENTON HARBOR  SUNNY     38  31  76 W14       30.00R WCI  30
BIG RAPIDS     PTSUNNY   37  30  77 W15       29.84S WCI  28
COLDWATER      SUNNY     39  29  69 W9        29.96R WCI  32
FREMONT        FAIR      38  29  72 W8G17     29.89S WCI  32
HOLLAND        SUNNY     40  31  70 W14G24    29.96R WCI  32
GRAND RAPIDS   MOSUNNY   38  30  73 W14       29.93R WCI  30
IONIA          FAIR      39  30  68 W13G18    29.90R WCI  32
KALAMAZOO      SUNNY     40  30  67 W10       29.96R WCI  33
LUDINGTON      SUNNY     40  32  71 W12G18    29.88R WCI  34
MARSHALL       SUNNY     37  29  72 W12       29.94R WCI  30
MOUNT PLEASANT SUNNY     38  30  72 W9        29.83S WCI  32
MUSKEGON       MOSUNNY   40  31  70 W14G21    29.93R WCI  32
SOUTH HAVEN    SUNNY     39  32  76 W9        29.99R WCI  33
$$
MIZ016>042-301400-
NORTHERN LOWER MICHIGAN

CITY           SKY/WX    TMP DP  RH WIND       PRES   REMARKS
ALPENA         CLOUDY    37  30  75 W12       29.73R WCI  29
BEAVER ISLAND  FLURRIES  33  31  92 W9        29.79R WCI  25
BELLAIRE       CLOUDY    37  30  73 W6        29.79R WCI  33
CADILLAC       CLOUDY    35  30  82 W14       29.79S WCI  25
CHARLEVOIX     CLOUDY    34  32  92 W15       29.82R WCI  24
FRANKFORT      SUNNY     40  29  64 NW13G20   29.84R WCI  33
GAYLORD        FLURRIES  32  31  96 W9        29.74R WCI  24
GRAYLING       CLOUDY    33  30  87 SW7       29.77S WCI  27
HARBOR SPRINGS LGT SNOW  33  31  90 W7        29.76R WCI  27
HOUGHTON LAKE  CLOUDY    34  29  82 W9        29.78R WCI  27
MANISTEE       SUNNY     37  28  70 W18G24    29.86R WCI  27
OSCODA         MOSUNNY   39  31  75 W10G17    29.75R WCI  32
PELLSTON       FLURRIES  34  30  85 W15G23    29.76R WCI  24
ROGERS CITY    LGT SNOW  34  32  92 W13G21    29.73R WCI  25
TRAVERSE CITY  PTSUNNY   38  29  70 W14       29.79R WCI  30
$$
MIZ007>008-015-301400-
EASTERN UPPER MICHIGAN

CITY           SKY/WX    TMP DP  RH WIND       PRES   REMARKS
KINROSS        PTSUNNY   30  27  86 NW18G26   29.70R WCI  18
MACKINAC ISLAN LGT SNOW  32  32 100 NW10      29.74R WCI  23
NEWBERRY       PTSUNNY   32  26  78 NW18G25   29.75R WCI  20
S. S. MARIE    FLURRIES  29  25  85 NW13G22   29.70R WCI  19
MUNISING         N/A     34  27  75 NW12      29.81R WCI  25
$$
MIZ004>006-011>014-085-301400-
CENTRAL UPPER MICHIGAN

CITY           SKY/WX    TMP DP  RH WIND       PRES   REMARKS
MANISTIQUE     PTSUNNY   32  30  92 NW10      29.79R WCI  24
ESCANABA       MOSUNNY   34  28  80 NW5       29.83R WCI  30
MENOMINEE      SUNNY     37  27  65 W9        29.85R WCI  31
SAWYER-GWINN   SUNNY    N/A N/A N/A NW12G17   29.80R
$$
MIZ001>003-009>011-084-301400-
WESTERN UPPER MICHIGAN

CITY           SKY/WX    TMP DP  RH WIND       PRES   REMARKS
IRON MOUNTAIN  SUNNY     37  26  64 NW15      29.82R WCI  28
HOUGHTON       SUNNY     32  26  78 NW15      29.84R WCI  22
COPPER HARBOR    N/A     31  25  78 N12       29.83R WCI  22
IRONWOOD       SUNNY     32  27  80 W9        29.88R WCI  24
$$

ABBREVIATIONS USED IN REMARKS
   TC - TEMPERATURE IN CELSIUS
  WCI - WIND CHILL INDEX
   HX - HEAT INDEX
  VSB - VISIBILITY




USA.gov is the U.S. government's official web portal to all federal, state and local government web resources and services.